Wind_Speed
43 43 43 43 43 43 43 42 42 41 40 40 39 39 38 37 36 35 36 37 37 38 38 39 41 43 44 46 49 52 53 54 53 53 51 50 49 48 46 45 45 46 48 50 50 48 47 46 45 44 43 42 41 39 37 35 34 32 31 29 27 26 24 23 21 19 17 16 15 12 10 8 7 7 7 8 9 9 11 11 13 16 19 21 25 28 31 34
44 44 44 44 44 44 44 44 44 43 43 42 41 41 41 40 39 38 38 39 39 40 40 41 42 44 45 47 49 51 54 55 55 55 54 53 51 50 49 47 46 46 48 49 50 50 49 48 47 46 45 44 42 41 39 37 35 34 32 31 29 28 26 25 23 21 18 17 16 14 12 10 9 8 8 9 9 10 11 12 13 15 18 20 24 27 30 32
43 44 44 45 45 45 45 45 45 45 45 44 44 43 43 43 42 41 41 41 41 42 42 42 43 45 47 48 49 51 53 55 56 56 56 55 54 53 52 50 48 48 48 48 49 51 51 51 50 48 47 45 44 42 40 38 37 35 34 33 31 30 28 26 25 23 20 19 18 16 13 11 10 10 10 10 10 10 11 12 13 14 17 20 23 25 28 30
43 44 44 45 45 45 46 46 46 46 46 46 46 45 45 45 45 44 44 43 43 44 44 44 45 46 48 49 50 52 53 55 57 57 58 58 56 55 54 53 51 49 49 49 49 51 52 52 51 50 48 46 45 43 42 40 39 37 36 35 33 32 30 28 27 25 23 21 19 17 15 14 12 11 11 11 11 10 10 12 13 14 16 19 22 24 26 28
43 44 45 45 45 46 46 46 47 47 48 48 48 48 47 47 47 47 47 46 46 46 46 46 47 48 49 50 52 52 54 55 57 58 59 59 59 58 57 56 54 52 51 50 50 51 52 52 52 51 50 48 46 45 43 42 40 39 38 36 35 34 32 30 28 27 25 23 21 19 17 16 14 12 12 12 12 11 10 11 13 14 16 19 21 23 25 26
44 45 45 46 46 46 46 47 47 48 48 49 50 50 50 49 49 49 49 49 49 48 48 49 49 50 50 51 53 54 54 56 57 58 60 60 61 60 59 58 57 55 53 52 51 51 51 51 51 52 52 49 47 46 45 43 42 40 39 38 37 36 34 32 31 29 27 25 24 22 20 18 17 14 13 13 13 12 11 11 12 14 15 18 20 21 23 25
44 45 45 46 47 47 47 47 47 48 49 50 51 52 52 51 51 52 52 52 52 51 51 51 51 52 52 53 54 55 55 56 58 59 60 61 62 62 62 61 59 58 56 55 53 52 51 50 51 52 52 50 48 47 47 45 43 42 41 40 39 38 36 34 33 31 29 28 26 25 23 21 19 16 15 14 14 14 12 11 12 13 14 16 18 20 22 23
43 45 45 46 47 48 48 48 48 48 49 50 52 53 53 53 53 53 54 55 55 55 54 54 53 54 54 55 55 56 57 58 58 60 61 62 62 63 63 63 62 60 59 57 56 54 53 51 51 52 51 50 49 49 48 46 45 44 43 42 41 40 38 36 34 32 31 29 28 27 25 23 21 18 16 16 16 15 13 11 12 12 13 15 17 18 20 22
42 44 46 47 48 48 49 49 49 49 50 51 52 53 54 54 55 55 56 57 57 57 57 57 56 56 56 57 57 57 58 59 60 60 61 62 62 64 64 64 63 63 61 60 59 57 55 53 52 52 51 49 49 49 49 48 47 46 45 44 43 41 39 37 35 33 32 30 29 28 26 25 23 20 18 17 17 16 14 12 12 12 12 13 15 17 19 20
41 43 46 48 49 50 50 50 50 50 51 52 53 53 54 54 56 56 57 59 60 60 60 60 59 59 58 58 59 59 60 61 61 62 62 62 63 64 65 65 64 64 64 62 61 59 57 55 54 53 51 50 50 50 50 50 50 49 47 45 44 42 40 38 36 34 33 31 30 28 27 26 24 22 20 19 18 18 16 14 12 12 12 13 15 16 18 19
42 43 45 47 49 51 52 52 51 52 53 54 54 54 53 54 55 57 59 60 61 62 63 63 63 62 61 61 60 61 62 62 63 63 63 63 64 65 66 66 65 65 65 64 63 61 60 58 57 56 54 52 52 51 50 51 51 50 48 46 44 43 41 39 37 35 34 32 31 30 28 27 25 24 22 20 19 18 18 15 13 13 13 13 14 16 17 18
44 44 45 46 48 50 52 53 54 54 55 56 56 55 54 54 55 57 59 61 62 63 64 65 65 65 65 63 63 63 63 64 64 65 65 65 65 66 66 66 66 66 66 65 64 63 62 61 60 59 57 55 53 51 50 51 51 50 49 47 46 43 41 39 38 36 35 33 32 30 29 28 26 25 23 21 19 19 18 17 15 14 14 14 14 15 16 17
43 45 46 47 48 49 51 53 55 55 57 58 58 57 56 55 55 56 58 61 63 64 65 67 68 68 68 67 66 65 65 65 66 67 67 67 66 66 67 67 67 67 66 65 65 65 65 64 63 61 60 58 55 54 53 52 51 51 49 48 46 44 42 41 39 37 35 34 33 31 30 29 28 26 24 22 21 19 19 18 17 15 15 15 14 15 16 16
45 45 46 48 49 50 50 52 54 56 58 59 60 59 58 58 58 58 58 59 63 65 66 67 70 71 71 70 69 68 67 67 68 69 69 68 68 67 67 67 68 68 66 64 64 66 67 66 65 64 62 61 59 58 56 55 53 51 50 48 46 45 43 42 40 38 36 35 34 32 31 30 29 27 25 23 22 21 20 19 19 16 15 15 14 14 15 15
48 47 47 47 49 50 51 51 53 55 58 60 61 61 61 61 61 61 60 59 61 65 67 68 70 73 74 74 73 71 70 69 69 70 71 70 70 69 69 68 68 68 67 64 64 66 67 67 67 66 65 64 63 61 59 57 55 53 51 49 47 45 44 43 41 39 38 37 36 34 32 31 31 29 27 25 23 22 21 21 20 18 15 15 14 14 14 14
52 51 49 48 48 50 51 51 51 53 57 60 61 63 64 65 65 65 64 61 60 62 66 70 71 73 75 76 76 75 73 72 71 72 72 72 71 71 70 70 69 69 68 66 66 67 67 67 68 67 66 66 65 63 62 60 58 56 53 51 49 47 45 44 43 41 40 40 38 35 34 34 33 32 30 28 26 25 23 22 22 19 16 15 14 13 13 13
55 54 53 50 49 49 51 51 51 52 55 58 60 63 65 67 68 68 67 65 63 61 64 69 73 74 76 77 78 78 77 75 74 73 73 73 73 72 72 72 71 69 68 68 68 68 67 67 68 68 67 67 66 65 64 63 61 59 57 54 52 49 47 46 45 44 43 42 39 38 37 36 36 34 33 31 29 27 25 24 22 21 18 16 14 14 13 13
55 55 54 52 50 49 49 50 50 51 54 57 59 63 66 68 69 69 69 68 66 63 62 66 72 75 77 78 79 80 80 79 77 76 75 74 74 74 74 73 72 71 70 69 70 69 68 67 67 67 67 67 67 67 66 65 64 62 59 57 55 52 50 48 47 46 45 43 42 40 39 38 37 36 34 32 30 29 27 25 23 22 20 18 16 14 14 13
55 54 53 52 50 48 47 48 48 50 53 56 58 62 65 67 69 70 70 69 68 67 64 64 69 75 78 79 80 82 83 82 81 79 77 76 76 76 75 75 74 73 72 71 71 71 69 68 67 67 67 67 68 68 67 66 65 63 62 60 58 55 53 51 50 48 47 46 44 43 41 40 39 37 36 34 32 31 28 26 24 23 22 20 18 16 15 14
54 53 52 49 47 45 45 45 47 50 53 55 58 60 63 66 68 70 70 70 70 69 68 66 68 73 78 80 81 83 84 85 84 82 80 78 77 77 77 77 76 75 74 73 73 72 71 69 68 68 69 68 69 68 67 66 66 64 63 62 60 59 56 54 52 51 50 48 46 45 43 41 40 39 37 36 34 32 30 28 26 24 24 22 20 17 16 15
52 50 48 45 43 42 42 43 46 50 53 55 56 58 62 65 67 69 69 69 70 70 70 70 69 71 76 81 83 84 85 86 87 86 84 82 79 78 79 79 78 77 77 76 75 74 72 71 70 70 69 68 68 68 67 66 66 65 64 63 62 61 59 57 55 54 52 50 49 47 46 44 43 42 40 39 36 34 32 30 28 26 25 24 22 19 17 15
48 45 42 39 39 39 41 44 47 50 53 54 56 58 61 64 65 66 67 67 68 69 70 72 71 70 74 80 84 85 86 87 88 89 88 85 83 81 80 80 80 79 78 78 77 76 74 73 73 71 69 68 68 68 67 66 66 65 64 63 63 62 61 59 57 57 55 53 51 50 48 47 46 44 43 40 38 36 35 33 31 29 27 25 23 21 18 16
43 39 35 35 38 40 42 45 47 50 53 55 57 59 61 63 64 64 65 65 66 66 68 71 72 71 73 78 84 87 88 88 89 90 90 89 86 84 82 81 81 81 80 80 79 78 77 76 75 73 71 69 69 68 67 66 66 66 65 64 63 62 62 60 59 59 57 55 54 52 51 49 48 46 44 42 41 39 37 35 33 31 28 26 24 22 19 17
36 33 33 36 39 42 43 46 49 52 55 57 59 61 61 61 62 63 63 63 64 64 66 69 71 72 74 78 83 87 90 90 90 91 92 92 90 87 85 83 83 83 82 82 81 81 80 79 77 75 73 71 70 69 67 67 66 66 66 65 64 63 61 60 60 60 59 57 55 54 52 51 50 48 46 45 44 41 39 37 35 32 30 27 25 23 21 18
32 33 35 38 41 43 46 48 51 54 57 58 60 60 59 59 60 62 61 61 62 62 63 65 68 71 75 79 83 87 91 92 92 92 93 94 93 91 88 85 84 84 84 84 83 82 82 81 79 76 74 73 71 70 68 67 67 66 66 67 65 63 61 60 59 59 59 57 55 54 53 52 51 50 49 47 46 44 42 39 37 35 32 28 26 25 23 21
33 35 38 40 43 47 49 51 53 56 57 58 58 58 57 57 58 59 59 59 60 60 61 63 66 70 74 78 81 86 90 93 93 93 93 95 95 94 91 88 86 86 86 86 85 84 84 83 81 79 76 74 72 71 70 69 67 67 68 68 66 64 61 59 58 58 58 56 55 54 53 53 52 51 50 49 48 46 44 41 39 37 33 30 28 26 25 24
35 38 41 44 47 49 51 53 54 56 57 56 55 54 54 54 55 55 56 57 57 58 59 61 65 68 72 76 80 85 90 93 94 94 94 95 96 96 94 91 89 87 87 87 87 86 85 84 83 80 78 76 74 73 72 71 69 69 70 69 67 65 62 59 57 57 56 55 54 54 54 53 53 52 51 50 49 47 45 43 40 38 34 32 30 29 28 26
39 42 44 48 51 52 53 54 55 55 55 54 52 51 51 51 51 51 53 55 55 56 58 60 63 67 70 74 78 83 89 93 96 97 96 96 97 98 97 95 92 90 89 89 89 89 88 86 84 81 80 78 77 77 75 73 72 72 72 70 68 66 63 59 57 56 55 54 53 53 53 53 53 52 51 50 48 47 46 43 40 38 36 34 32 30 29 28
43 45 47 51 53 54 55 55 55 55 53 51 49 47 47 47 47 48 49 52 53 53 56 59 62 65 69 72 77 81 87 93 97 98 98 97 98 99 99 97 94 92 91 90 90 90 89 88 86 83 82 81 80 79 77 75 75 75 73 70 69 67 64 62 59 57 56 55 53 52 53 53 52 51 50 48 47 46 45 43 40 38 36 35 33 32 31 30
45 47 51 53 54 55 56 56 55 53 51 48 46 45 44 43 44 45 46 48 50 52 54 57 60 64 67 70 74 78 84 91 97 99 100 99 99 99 100 99 98 96 94 92 91 91 90 89 88 86 84 83 83 81 79 78 78 76 73 72 70 68 66 64 61 60 58 56 55 53 53 54 53 51 50 49 48 46 45 43 41 38 36 34 33 33 32 31
46 50 53 54 55 57 57 56 54 52 49 46 43 42 41 40 40 41 43 45 47 49 52 55 59 62 65 68 71 75 81 88 95 99 101 101 100 100 100 101 100 99 97 95 93 92 92 91 90 88 87 86 84 82 81 81 81 78 75 75 73 70 68 65 63 61 59 58 57 55 55 55 53 51 51 51 49 47 46 44 42 40 37 33 31 31 31 32
48 53 55 55 57 58 58 56 53 50 46 43 40 38 37 37 37 38 40 42 44 47 50 54 57 60 62 65 69 73 78 84 91 97 101 102 102 101 101 102 102 101 99 97 95 94 93 92 91 90 89 88 86 84 83 83 82 80 78 77 75 73 70 67 64 62 60 60 60 57 56 57 55 52 52 51 50 48 46 45 43 40 39 36 33 29 28 29
51 54 55 57 59 59 58 55 51 47 42 39 36 34 33 33 34 35 37 39 43 46 49 52 55 58 61 64 67 70 74 79 86 93 99 102 103 102 102 103 104 104 102 100 97 96 94 94 93 92 92 90 88 87 85 85 84 82 80 79 77 75 72 69 66 64 62 62 62 59 57 58 56 53 52 52 51 49 47 46 43 41 39 38 36 33 30 29
53 54 56 59 60 59 57 53 48 43 38 35 32 30 29 30 31 33 35 37 41 44 47 50 53 56 60 63 65 68 71 75 81 88 95 100 102 103 103 103 105 105 104 102 100 98 96 95 94 94 93 92 90 89 88 87 85 84 82 81 80 77 75 72 69 67 65 65 65 62 60 60 58 55 53 52 52 50 48 47 44 42 40 38 37 36 35 33
53 56 59 61 60 59 56 50 44 39 35 31 28 26 26 27 29 31 33 36 39 43 46 49 52 55 59 61 63 66 69 72 77 83 89 96 100 102 103 104 104 105 105 104 102 100 98 96 95 95 94 94 92 91 90 89 87 86 84 83 82 80 77 75 72 70 69 68 68 65 63 62 61 58 55 54 52 51 50 48 45 44 42 39 38 37 37 36
54 58 62 62 61 59 54 47 41 36 32 29 25 23 23 24 26 29 31 34 37 41 44 48 51 54 57 60 62 64 67 70 74 78 84 91 97 100 102 104 104 105 105 105 104 102 100 98 97 96 95 95 94 93 92 91 90 88 86 85 83 82 80 78 76 74 72 71 70 68 65 64 63 61 58 55 54 52 51 48 47 45 43 41 39 38 38 38
55 60 63 63 61 58 52 46 39 34 30 26 23 21 20 22 24 26 28 32 36 39 43 46 50 53 56 59 60 62 64 67 70 75 80 86 93 98 101 103 105 105 105 106 105 104 103 101 99 98 97 96 95 94 93 92 91 90 89 87 85 84 82 81 79 77 75 73 72 70 67 65 64 63 60 57 55 54 52 49 47 46 45 43 41 39 39 40
57 61 64 64 62 58 51 44 38 33 28 24 21 18 17 19 21 24 26 30 34 37 41 45 48 51 55 58 59 61 63 65 68 71 76 82 88 94 98 102 104 105 106 106 106 106 105 103 102 100 99 98 96 95 94 93 92 91 90 89 87 86 85 83 81 79 77 75 74 72 69 66 65 63 62 59 57 55 53 51 49 48 46 44 43 41 41 40
58 62 65 65 64 59 52 44 38 32 27 22 19 16 15 16 18 21 24 27 31 35 39 43 46 50 53 56 58 60 61 64 66 69 73 77 83 90 95 100 103 105 106 107 107 107 107 106 104 102 101 100 98 97 95 94 93 92 91 90 89 88 86 85 83 81 79 78 76 75 72 69 65 64 64 62 59 57 55 52 51 50 48 46 44 43 42 41
58 63 65 66 65 61 53 44 37 32 27 22 17 15 13 14 15 19 22 26 30 33 37 41 44 48 51 54 57 58 60 61 64 67 70 74 79 85 91 97 101 104 106 107 107 107 108 108 106 105 103 101 100 99 97 95 94 93 92 91 90 89 87 86 85 83 81 79 78 77 75 71 68 66 66 64 62 60 57 54 53 51 50 48 46 45 44 43
59 63 66 66 66 62 54 45 38 31 27 22 16 13 12 12 14 17 20 24 28 32 36 39 42 46 49 51 54 55 57 59 62 65 68 71 75 80 87 93 98 103 105 107 107 107 107 108 108 107 105 103 102 100 99 97 95 94 92 92 91 90 88 87 86 84 82 81 80 79 77 74 71 69 68 67 65 63 60 57 55 54 52 50 49 47 46 44
59 64 66 66 67 64 56 47 38 32 26 22 16 12 11 12 13 16 19 23 27 31 34 38 41 44 47 49 51 53 54 56 59 62 65 69 72 77 82 88 94 100 103 105 107 107 107 107 107 107 106 105 103 102 100 98 97 95 94 93 92 91 89 88 87 85 84 82 81 80 79 77 75 72 71 70 69 66 64 61 58 56 55 53 51 50 48 47
59 64 67 67 68 65 58 49 40 32 26 21 16 12 10 11 13 15 19 23 27 30 33 36 40 43 46 49 50 51 52 54 56 59 63 67 70 74 78 83 89 94 99 102 104 106 106 106 106 106 106 106 104 103 101 100 98 96 95 94 93 92 91 89 88 87 85 84 83 81 80 78 76 74 73 72 72 70 67 64 62 60 58 56 54 53 51 49
59 64 67 67 68 67 60 50 41 33 27 21 16 12 10 11 13 15 19 23 27 30 33 36 39 42 45 47 49 50 51 52 54 57 60 64 68 72 74 78 83 88 93 98 101 103 104 104 105 105 104 105 105 104 102 101 99 98 97 96 95 93 92 91 90 88 87 85 84 82 80 79 77 76 74 74 74 73 71 68 66 63 62 59 58 56 54 52
59 63 66 67 68 67 61 52 42 34 28 22 16 12 9 10 12 15 18 21 25 29 31 34 37 40 43 46 48 49 50 51 53 55 57 61 65 69 72 74 78 82 88 93 97 100 101 103 103 103 103 104 104 104 104 103 102 100 99 97 96 95 94 93 92 90 89 87 85 83 81 80 78 77 76 75 76 76 75 73 69 67 65 63 61 60 58 55
58 62 66 67 68 68 62 52 43 35 29 23 17 12 9 9 12 14 17 20 24 28 31 33 36 39 42 44 46 48 49 50 51 52 54 57 60 65 68 71 74 77 82 87 92 96 99 100 102 103 103 103 103 104 104 104 104 103 102 100 98 97 96 95 94 93 91 89 87 84 82 81 80 78 78 77 77 78 78 77 74 71 69 67 65 63 61 58
58 62 65 67 68 67 62 53 43 36 30 24 19 13 9 9 11 14 17 20 23 27 30 33 35 38 41 43 45 47 48 49 50 51 52 53 56 59 64 68 71 73 76 80 85 91 95 98 100 101 102 103 103 104 104 105 105 105 104 103 102 100 98 97 96 95 93 91 89 86 84 83 81 80 79 78 78 79 80 80 78 75 73 70 68 66 64 61
58 62 65 67 68 67 63 53 43 35 29 25 21 16 11 8 10 13 16 19 22 26 29 32 35 37 40 42 45 47 48 49 50 51 52 53 54 56 60 64 68 72 74 76 79 84 89 94 97 99 100 102 103 104 104 105 105 106 106 106 105 103 102 100 99 98 96 94 91 89 87 85 84 82 81 79 79 79 81 81 81 79 77 74 71 69 68 65
58 61 64 66 67 67 63 54 43 35 29 25 22 18 13 10 9 11 15 18 21 25 29 32 34 36 38 41 44 47 49 50 51 52 53 54 55 56 57 60 63 67 71 74 76 79 82 88 93 97 99 101 102 104 104 105 106 106 107 107 107 106 105 104 102 101 99 97 95 92 90 88 86 84 83 82 81 80 81 82 83 82 80 77 75 73 71 69
57 61 63 65 66 66 63 54 44 36 30 25 22 19 15 11 9 10 13 17 21 24 28 31 34 36 38 40 42 45 48 50 52 53 53 54 54 55 56 58 60 62 66 70 74 76 78 81 86 92 96 99 101 103 105 106 106 107 107 108 109 109 108 107 105 104 102 100 98 96 93 90 88 86 85 84 83 83 82 83 84 85 83 81 78 76 75 72
57 60 63 65 66 66 62 54 45 37 31 27 23 19 17 13 10 9 11 15 19 23 26 30 33 35 37 39 41 43 46 49 52 53 54 54 55 56 57 58 59 61 63 66 69 73 76 78 81 86 91 96 99 102 104 106 107 107 107 108 109 109 110 110 109 107 106 104 102 100 97 93 90 89 88 87 86 85 84 84 85 86 86 84 82 80 78 76
57 59 62 64 65 65 61 54 45 38 32 28 24 20 18 15 12 9 9 12 16 21 25 28 32 34 37 39 40 42 44 47 50 52 54 56 56 57 57 58 59 60 61 63 65 68 72 75 79 82 86 90 95 99 102 105 106 107 108 108 108 109 110 111 111 110 109 107 105 103 101 98 94 92 91 90 88 87 86 85 86 87 87 87 85 83 81 80
Wind_Direction
275 274 272 270 268 267 266 265 264 262 260 257 254 251 248 245 242 240 238 236 234 232 229 225 221 220 219 218 217 217 218 218 218 218 219 219 220 221 221 221 221 220 220 220 219 218 218 218 217 218 219 220 221 222 223 225 227 229 232 234 235 237 240 244 246 249 250 249 245 243 250 265 282 297 316 332 345 351 346 348 355 355 355 360 6 7 7 11
276 274 273 271 269 268 266 265 263 262 260 258 254 251 249 246 243 240 238 237 234 232 231 228 224 221 220 219 219 217 217 218 219 219 220 220 221 222 223 222 222 221 221 221 221 221 221 221 220 219 220 221 222 222 223 225 227 229 231 234 236 237 239 242 244 246 246 246 245 243 247 261 274 285 299 312 328 340 341 341 348 351 352 357 3 5 6 10
277 275 274 272 270 269 267 266 264 262 260 258 255 252 249 246 244 241 239 237 235 233 231 229 227 224 221 220 220 219 218 217 218 219 220 221 221 222 223 223 223 222 222 222 223 223 222 222 222 221 221 222 223 224 224 226 228 230 232 233 235 237 237 239 242 244 244 244 244 244 246 255 267 277 286 296 311 327 334 335 342 347 350 356 1 4 5 8
281 278 276 274 271 269 267 266 264 262 260 258 255 253 250 247 244 242 240 238 235 234 232 230 228 226 223 221 220 220 219 218 217 219 220 221 222 223 224 224 224 223 223 223 223 224 224 223 223 224 223 223 224 225 226 226 228 230 232 233 235 236 236 237 240 242 244 244 244 244 245 250 260 270 277 286 298 312 326 331 338 344 349 356 359 2 5 7
285 282 280 277 274 272 269 266 264 263 261 258 256 253 250 247 245 242 241 239 236 234 233 231 229 227 225 223 221 220 220 220 218 218 219 220 222 223 224 225 224 224 224 223 224 224 225 225 225 226 225 225 226 226 227 228 229 230 232 234 235 235 236 236 238 241 243 245 245 245 246 249 255 264 272 279 288 300 316 325 334 342 348 355 357 0 3 4
289 287 284 281 278 275 272 269 266 263 261 259 257 254 251 248 245 243 241 239 238 235 234 232 230 228 226 225 223 221 220 221 220 218 218 219 221 222 224 225 225 225 225 224 224 225 225 226 227 227 227 226 227 228 229 229 230 231 232 234 235 236 236 237 238 239 241 244 246 246 247 249 254 260 267 274 282 292 305 316 326 336 344 350 353 357 0 2
291 289 287 285 282 279 276 272 269 265 262 260 257 255 252 248 245 244 241 239 238 237 235 233 231 230 228 226 224 222 221 221 221 220 218 218 220 221 223 225 225 225 226 225 225 225 225 226 227 228 228 228 228 229 230 231 232 232 233 234 235 237 237 238 238 239 240 242 244 246 247 249 253 258 264 270 278 285 296 307 315 326 337 344 347 352 357 0
293 291 288 286 284 282 279 276 273 269 265 261 258 255 253 250 246 244 242 240 238 237 235 234 232 231 229 227 225 224 222 222 221 221 220 219 219 220 222 224 225 226 226 226 226 226 226 226 227 228 229 228 229 229 230 231 232 233 233 234 235 236 237 238 238 239 240 242 244 245 247 249 252 255 261 267 273 279 286 295 303 315 328 336 339 345 351 357
293 290 289 287 285 283 281 279 276 273 270 265 261 256 253 251 248 245 242 240 238 236 235 235 233 231 230 229 227 225 223 223 222 221 221 220 219 219 221 222 224 225 226 227 227 227 226 226 226 228 229 229 229 229 230 231 232 232 233 233 234 235 236 238 238 239 240 242 244 246 247 249 251 253 257 262 268 273 279 286 295 306 318 326 330 337 345 352
291 290 288 286 285 283 282 280 278 276 273 270 266 261 255 251 249 246 243 241 239 237 235 234 234 232 231 230 228 226 224 223 223 222 221 221 220 220 220 221 222 224 225 226 227 228 228 228 228 228 228 228 228 229 229 230 231 232 233 234 235 236 236 237 238 239 239 241 243 245 247 249 251 253 254 258 264 270 275 280 288 298 307 314 321 329 338 346
287 287 286 285 283 282 281 280 279 277 275 273 270 266 260 255 250 247 245 242 239 237 235 234 233 233 231 230 229 228 226 224 223 222 221 221 221 221 221 220 221 223 224 225 227 228 228 229 228 228 228 228 228 228 229 231 232 233 233 234 235 236 237 237 238 238 238 239 241 244 247 249 250 253 255 257 261 267 273 276 282 289 297 303 311 321 331 340
285 285 284 282 281 279 278 278 277 276 275 273 272 269 266 261 255 249 246 243 240 238 236 234 232 232 232 230 229 228 227 226 224 223 222 221 221 221 222 221 221 222 223 224 225 226 228 229 229 229 229 229 229 229 230 231 232 233 233 234 235 235 236 237 238 238 239 239 241 243 246 248 250 253 256 259 261 265 270 274 276 281 287 294 302 313 324 334
289 286 283 281 279 277 276 275 274 273 272 272 271 270 268 265 261 255 248 244 241 239 236 235 233 231 231 231 229 228 228 227 226 224 223 222 221 221 222 222 221 221 222 222 224 225 226 227 229 229 230 230 230 230 230 231 231 232 232 233 234 235 236 237 238 238 239 240 241 242 244 247 249 252 256 259 261 263 267 271 272 274 280 286 294 306 318 329
295 290 285 282 278 275 273 271 270 270 269 269 269 270 269 267 264 260 254 247 242 239 237 235 233 232 230 230 229 228 227 227 227 225 223 222 222 222 222 222 222 222 221 221 223 224 225 226 228 229 229 230 231 230 231 231 231 231 232 233 234 234 235 236 237 238 238 239 240 242 243 245 248 250 252 256 259 261 264 267 269 270 274 281 289 300 313 324
298 295 290 285 280 275 271 269 267 265 265 266 267 267 267 266 265 262 259 252 245 240 237 235 233 232 230 229 229 228 227 227 227 226 225 223 222 222 222 222 222 222 221 221 222 223 224 225 226 228 229 230 231 232 232 232 232 232 232 232 233 234 235 235 236 236 237 238 239 240 241 243 245 246 248 250 253 257 260 263 266 268 271 278 286 297 308 318
298 296 293 289 284 276 270 267 264 262 262 263 263 264 264 263 263 262 260 257 250 243 238 235 233 232 231 229 227 228 227 226 227 227 226 224 222 222 222 222 222 222 221 221 222 223 223 224 225 227 228 229 231 232 232 233 233 233 233 233 233 233 235 235 236 236 236 237 238 239 240 241 243 244 245 247 249 252 255 259 264 267 270 276 284 294 303 312
297 296 294 292 288 279 270 265 263 260 260 260 260 260 260 260 260 259 259 258 254 248 240 236 233 231 231 229 227 227 227 226 226 226 226 225 223 222 222 222 222 222 221 221 222 223 223 223 224 225 226 228 229 230 231 233 233 233 233 233 233 233 234 235 236 236 237 238 238 238 239 241 243 244 245 247 249 251 254 258 264 268 272 275 282 290 297 305
297 294 293 292 290 282 272 266 262 259 259 258 258 256 256 256 256 257 257 257 256 252 245 238 234 232 230 229 228 226 226 226 226 226 226 226 224 223 222 222 222 222 221 221 222 222 223 223 223 224 225 227 228 229 230 232 233 234 234 234 234 234 234 235 236 237 238 238 238 238 240 241 243 245 246 247 249 251 254 258 263 268 271 274 278 284 291 298
296 294 293 292 289 282 274 268 263 260 259 258 256 254 253 253 254 254 255 255 255 253 249 242 236 232 230 228 227 226 225 225 225 225 225 225 225 224 223 222 221 222 222 222 222 222 222 223 223 223 224 225 226 228 229 231 233 234 234 234 234 234 235 235 236 237 238 239 239 239 241 242 243 245 246 247 249 251 254 256 259 264 268 271 274 279 285 292
296 294 292 290 286 281 276 271 268 264 261 258 256 254 253 252 252 252 252 252 252 251 250 245 238 233 230 228 227 226 225 224 224 224 224 224 224 224 224 223 222 221 222 222 222 222 222 222 222 223 224 224 226 227 229 230 231 232 233 234 234 235 235 235 236 237 238 239 240 241 241 242 243 245 246 246 248 250 252 253 255 259 264 267 270 273 279 286
296 294 292 288 284 281 279 275 272 268 264 260 258 256 254 252 251 251 251 250 250 249 247 245 240 235 230 228 226 225 225 224 223 224 224 224 224 224 224 223 222 221 221 222 222 223 222 222 222 223 224 224 225 226 227 228 230 230 231 232 233 234 234 235 236 237 238 239 240 241 241 242 243 244 244 245 247 248 249 250 252 255 259 263 266 269 273 278
297 293 290 289 287 285 281 278 274 271 268 265 262 260 257 254 253 252 251 250 248 247 245 243 241 236 231 228 226 225 224 223 223 223 223 223 223 223 223 223 223 222 221 222 222 222 222 222 222 223 223 224 225 225 226 227 228 229 230 230 231 233 233 234 235 236 237 238 239 240 241 242 243 244 245 246 246 247 248 249 250 252 255 259 263 266 268 272
296 294 294 293 291 287 283 280 278 276 273 270 267 263 260 258 256 254 253 251 249 246 244 242 240 236 232 228 226 224 223 223 222 222 222 222 222 222 223 223 223 222 222 222 222 222 223 223 223 222 222 223 224 225 226 226 227 228 229 229 229 231 232 232 233 235 236 237 239 240 241 242 243 245 245 246 247 247 248 249 250 251 253 256 261 264 266 268
299 300 300 296 292 289 287 286 284 281 277 274 271 267 264 262 260 258 256 253 251 247 243 240 238 235 232 228 225 223 222 222 222 221 221 222 222 222 222 222 223 223 222 222 222 223 223 223 223 222 222 222 223 224 225 226 226 227 228 228 228 229 230 231 232 234 235 236 238 239 241 242 243 245 245 246 247 247 247 248 249 250 252 254 258 262 264 263
307 306 302 297 294 292 291 290 288 285 281 278 274 270 268 265 263 260 258 255 251 247 243 239 236 234 231 228 225 223 222 221 221 221 221 221 221 221 221 222 222 222 222 222 222 223 223 223 223 223 223 223 223 223 224 225 226 227 228 228 228 228 228 229 231 232 234 235 237 238 240 241 242 243 244 245 246 247 247 248 248 249 249 250 252 255 258 257
311 305 301 298 296 295 294 293 292 288 284 281 277 273 270 267 264 261 258 255 251 247 243 238 235 233 231 228 225 223 222 221 221 220 220 220 221 221 221 221 222 222 222 223 223 223 223 223 223 222 223 223 223 223 223 224 225 226 228 228 228 227 227 228 229 231 233 234 235 237 238 239 241 242 243 245 246 246 247 247 247 247 248 248 248 250 251 252
309 304 302 301 300 299 299 298 295 291 287 284 280 276 271 267 264 260 257 254 249 246 242 238 234 232 230 228 225 222 221 221 220 220 220 220 220 221 220 220 221 221 222 223 223 223 224 223 223 222 223 223 223 223 223 224 224 226 227 228 228 227 226 226 228 230 231 232 233 235 236 238 240 241 242 244 245 247 247 248 248 249 249 248 248 247 248 248
308 306 305 305 305 305 304 302 298 295 291 287 283 278 273 268 263 259 255 252 248 244 240 236 233 231 229 226 224 222 220 220 220 219 219 219 220 220 220 220 220 221 222 222 223 224 224 224 223 222 222 223 223 223 223 224 224 225 227 228 228 228 226 225 226 228 229 230 231 232 234 236 238 240 242 244 245 247 249 250 251 252 253 252 250 250 250 249
309 309 309 310 310 309 307 305 302 298 294 290 285 280 273 268 263 258 254 250 246 241 237 234 231 229 227 225 223 221 220 219 219 219 219 218 219 220 220 220 220 220 221 222 223 224 224 225 224 223 222 223 223 223 224 224 225 226 226 227 228 228 227 225 224 225 227 228 228 230 232 234 236 238 240 241 243 245 247 248 249 250 252 253 253 253 252 251
312 312 313 314 314 313 310 308 305 302 298 293 288 281 275 269 263 258 252 248 244 239 234 231 228 226 225 224 222 221 220 219 218 219 218 218 218 219 220 220 220 219 220 221 222 223 225 225 225 224 223 223 223 223 224 225 225 226 226 227 227 227 227 226 224 225 226 227 227 228 230 232 233 235 237 238 240 242 243 244 244 245 246 249 252 253 252 252
314 315 317 318 317 316 314 311 309 305 300 295 289 282 276 269 263 256 251 246 241 236 231 227 225 224 223 222 221 220 219 218 218 218 218 218 218 218 219 220 220 220 220 220 221 222 224 224 225 225 224 224 224 224 224 225 226 225 226 227 227 227 227 226 225 226 226 227 228 227 229 231 231 233 235 237 238 240 241 242 243 244 243 243 246 251 255 256
316 319 321 322 321 319 317 315 312 308 302 296 290 283 276 269 262 255 249 243 239 234 228 225 223 221 220 219 219 219 218 218 217 217 217 218 218 218 219 219 220 220 220 220 220 222 223 224 224 225 225 225 225 224 224 225 226 225 226 227 227 227 227 226 226 226 226 228 228 228 229 231 231 231 234 236 237 238 239 241 242 243 243 241 240 242 248 253
320 323 325 325 324 323 321 319 315 310 304 298 291 284 276 268 260 252 246 240 235 230 226 222 220 219 218 217 217 218 218 217 217 217 217 217 217 218 218 219 220 220 220 220 220 220 222 223 224 225 225 225 225 225 225 226 226 226 226 226 227 226 226 226 225 225 225 227 228 228 229 231 231 231 232 235 236 237 238 239 240 240 241 241 240 238 236 238
324 326 328 329 328 327 325 322 317 312 307 300 293 284 275 265 257 249 242 236 232 228 224 220 218 217 216 216 216 217 217 216 216 216 216 217 217 217 218 219 219 220 220 220 220 220 221 222 224 225 225 225 225 225 225 226 226 226 226 226 226 226 226 225 225 224 224 226 228 227 229 231 231 230 231 233 235 236 237 237 238 238 238 239 240 239 236 234
328 330 331 332 331 330 328 325 321 316 310 302 293 283 272 262 253 245 239 233 230 226 222 218 216 215 215 215 215 216 216 216 216 216 216 216 217 217 218 218 219 220 220 221 220 220 221 222 223 224 225 226 226 226 226 226 227 227 226 226 226 226 226 225 225 224 224 225 227 227 228 230 232 231 230 232 234 235 236 236 237 237 236 236 237 237 237 235
332 334 335 335 335 334 333 330 326 320 313 305 295 283 271 259 250 242 236 231 227 224 220 217 215 214 214 214 215 216 216 216 216 215 215 216 216 217 217 218 219 220 220 221 221 221 221 221 222 223 224 225 226 226 226 227 227 227 227 227 227 226 226 225 225 224 224 225 227 228 228 230 232 232 231 232 233 234 235 236 236 236 235 234 234 234 235 235
336 337 338 338 338 338 337 334 330 324 317 309 297 283 269 258 247 239 233 228 225 222 219 216 215 214 213 214 214 215 216 216 216 216 215 215 216 216 217 218 219 219 220 220 220 221 221 221 222 223 224 225 226 226 226 227 227 228 228 227 227 227 227 226 225 225 225 225 227 227 227 229 231 233 233 232 232 233 234 234 235 236 235 234 232 232 233 235
339 340 341 341 341 342 341 339 334 328 322 314 301 285 268 256 245 236 230 226 223 220 218 216 215 214 213 213 214 215 216 216 216 216 216 216 216 216 217 218 219 219 220 220 220 221 221 221 221 222 223 224 225 226 226 227 227 228 228 228 228 228 228 227 227 226 226 226 226 227 227 227 229 232 233 232 232 232 233 233 233 234 234 233 232 231 231 233
341 343 344 344 345 345 345 343 338 333 327 320 307 290 269 254 245 235 227 224 222 220 217 215 215 214 214 213 214 214 215 215 216 216 216 216 216 216 217 218 219 219 220 220 220 220 221 221 221 222 223 224 225 225 226 226 227 228 228 229 228 228 228 228 228 227 226 226 226 227 226 226 226 230 232 232 231 231 232 232 233 233 233 233 232 231 231 231
343 345 346 347 347 348 347 346 342 337 332 326 313 295 273 253 243 235 226 222 221 219 217 215 215 215 215 215 215 215 215 216 216 216 217 217 217 217 217 218 219 219 220 220 220 221 221 221 221 222 222 223 224 225 226 226 227 227 228 229 229 229 229 229 229 228 227 227 227 227 226 225 224 226 230 232 231 231 230 231 231 232 232 232 232 231 231 230
345 347 348 349 350 350 349 348 346 341 337 332 319 299 278 255 238 230 224 220 219 218 217 215 214 215 216 216 217 217 217 217 217 217 217 217 217 217 217 218 219 219 220 220 220 221 221 222 222 222 223 223 224 225 226 226 227 227 228 229 229 229 229 229 229 228 228 227 227 227 227 225 224 223 227 230 231 230 230 229 230 231 231 231 231 231 230 230
346 348 350 350 351 352 351 350 349 345 342 336 323 303 281 260 241 227 220 217 216 217 217 216 214 214 215 216 217 217 218 218 218 218 218 218 219 219 218 218 219 220 220 220 221 221 222 222 222 223 223 224 224 225 226 226 227 228 228 229 229 230 230 230 230 229 228 228 227 227 227 226 224 223 224 228 230 230 229 228 228 229 230 230 230 230 230 230
348 350 351 351 353 353 352 351 351 348 345 340 328 308 284 263 245 231 222 216 214 215 216 216 216 215 214 215 216 217 218 218 218 219 219 219 220 220 220 220 220 221 221 221 221 222 222 223 223 223 224 224 225 225 226 227 227 228 228 229 230 230 230 230 230 229 229 228 228 227 227 226 225 224 223 225 229 230 229 228 227 227 229 229 229 230 229 229
349 351 352 352 354 354 353 352 352 351 348 344 334 314 286 264 247 234 226 220 215 213 214 215 216 216 216 216 216 217 218 218 218 219 219 220 220 221 221 221 221 222 222 222 222 222 222 223 224 224 224 225 225 226 227 227 227 228 229 229 230 230 231 231 230 230 229 229 228 227 227 226 225 224 223 223 226 229 229 229 227 227 228 229 229 229 229 228
350 352 352 353 354 355 354 353 352 351 349 346 339 320 291 267 252 239 230 224 220 216 214 215 216 217 217 217 217 218 219 219 219 220 220 220 221 222 222 222 222 223 223 223 223 222 223 223 224 224 225 225 226 226 227 228 228 228 229 229 230 230 231 231 231 231 230 229 228 227 227 226 226 225 223 222 224 227 229 228 227 226 226 228 228 229 228 228
350 352 353 354 355 355 355 354 352 351 349 348 344 329 299 268 254 244 234 227 223 220 217 216 216 217 217 218 218 219 220 220 221 221 222 222 222 222 223 224 224 224 224 224 224 223 223 223 223 224 224 225 225 226 227 227 228 228 229 229 230 230 231 232 232 232 231 230 229 228 227 226 225 225 224 222 222 225 228 228 227 227 226 226 228 229 229 228
349 352 353 354 355 355 356 355 352 351 349 348 346 338 313 275 253 244 238 231 226 223 220 219 217 217 217 218 218 219 220 221 221 222 222 223 223 223 224 224 225 225 226 226 225 225 224 224 224 224 224 225 225 226 226 227 228 228 229 229 229 230 230 231 232 232 232 231 230 228 227 227 226 224 224 223 221 222 226 228 228 227 226 226 227 229 229 228
349 351 353 354 354 355 356 355 353 351 349 348 346 343 328 292 258 243 238 233 229 225 223 222 220 219 218 218 218 219 219 220 221 222 222 222 222 223 224 224 225 225 226 226 226 226 225 225 224 224 224 225 225 226 226 227 227 228 229 229 229 230 230 230 231 231 232 231 230 228 227 227 226 225 224 223 222 221 223 226 228 228 227 226 226 227 229 229
349 351 353 353 354 355 355 355 354 352 351 349 346 344 336 314 278 250 238 233 230 227 225 224 223 222 221 220 219 220 220 221 222 223 223 223 224 224 224 224 225 226 226 227 227 227 227 226 225 225 225 225 225 226 226 227 227 227 228 229 229 230 230 230 231 231 231 231 231 229 228 227 226 225 224 223 222 221 221 223 226 227 227 227 226 227 228 229
349 351 353 353 354 354 354 355 354 352 351 350 347 345 340 327 300 267 245 235 230 228 227 226 225 224 223 222 221 221 221 222 223 224 224 225 226 226 226 225 225 225 226 227 227 228 227 227 227 226 226 225 225 225 226 226 227 227 228 229 229 230 230 230 230 231 231 231 231 230 229 227 226 226 225 224 222 221 220 221 224 226 226 226 227 227 228 228
348 351 352 353 353 353 354 354 354 353 351 351 349 346 342 334 317 286 257 242 235 230 227 226 226 226 225 223 223 222 223 223 224 225 225 226 227 227 228 228 227 226 226 227 227 228 228 228 227 227 227 226 226 226 226 226 227 227 228 228 229 230 230 230 230 231 231 231 231 231 230 228 227 226 225 224 223 222 221 221 222 224 225 226 226 226 227 228
348 350 352 353 353 353 353 353 354 353 353 352 351 348 344 338 328 307 274 251 241 235 230 228 227 227 226 226 225 224 223 224 224 225 226 227 228 228 229 230 230 229 228 228 228 228 228 228 228 228 228 227 227 226 227 227 227 227 228 228 228 229 230 230 231 231 231 231 231 231 231 230 228 226 226 225 224 223 222 221 221 223 225 225 225 226 226 228
Height
10895 10895 10896 10896 10897 10897 10898 10899 10900 10901 10902 10903 10905 10906 10907 10908 10910 10911 10912 10913 10915 10917 10919 10921 10923 10924 10926 10928 10929 10931 10934 10938 10941 10944 10946 10948 10950 10952 10954 10957 10959 10962 10964 10965 10968 10971 10973 10976 10978 10980 10982 10984 10986 10988 10991 10993 10995 10996 10998 11000 11002 11003 11004 11006 11007 11008 11009 11010 11011 11012 11013 11014 11014 11014 11014 11015 11015 11015 11015 11014 11014 11013 11012 11011 11010 11009 11008 11006
10890 10890 10890 10891 10891 10892 10893 10894 10895 10896 10897 10898 10899 10901 10902 10903 10905 10906 10907 10908 10910 10912 10914 10916 10918 10920 10922 10924 10925 10927 10929 10933 10936 10939 10942 10944 10947 10949 10950 10953 10956 10958 10960 10962 10965 10968 10970 10972 10975 10977 10979 10981 10983 10986 10988 10991 10993 10994 10996 10998 11000 11001 11003 11004 11005 11007 11008 11009 11010 11011 11012 11013 11013 11014 11014 11014 11015 11015 11015 11014 11014 11014 11013 11011 11010 11010 11009 11007
10885 10885 10885 10885 10886 10886 10887 10888 10889 10890 10891 10892 10893 10895 10896 10898 10900 10901 10902 10903 10905 10907 10909 10911 10913 10915 10917 10919 10921 10923 10925 10928 10931 10934 10937 10940 10943 10945 10946 10949 10952 10954 10957 10959 10961 10964 10966 10968 10971 10973 10976 10978 10981 10984 10986 10989 10990 10992 10994 10996 10997 10999 11001 11002 11004 11005 11007 11008 11009 11010 11011 11012 11013 11013 11013 11014 11014 11015 11015 11014 11014 11014 11013 11012 11011 11010 11009 11008
10880 10880 10879 10880 10880 10880 10881 10882 10883 10884 10885 10886 10887 10889 10890 10892 10894 10896 10897 10898 10900 10901 10903 10905 10908 10910 10912 10914 10916 10918 10921 10923 10926 10929 10932 10935 10938 10940 10942 10945 10948 10951 10953 10956 10958 10960 10962 10965 10968 10971 10974 10977 10979 10981 10984 10986 10988 10990 10991 10993 10995 10997 10999 11001 11002 11004 11005 11006 11008 11009 11010 11011 11012 11013 11013 11013 11014 11015 11015 11014 11014 11014 11013 11012 11011 11010 11010 11009
10875 10874 10874 10874 10874 10874 10875 10876 10876 10877 10878 10879 10880 10882 10884 10886 10888 10890 10892 10893 10895 10896 10898 10900 10902 10904 10906 10909 10911 10914 10916 10918 10921 10924 10927 10930 10933 10936 10938 10940 10944 10947 10949 10952 10954 10956 10959 10962 10965 10967 10971 10974 10977 10979 10982 10984 10986 10987 10989 10990 10992 10994 10996 10999 11001 11002 11004 11005 11006 11008 11009 11010 11011 11012 11012 11012 11013 11014 11014 11014 11014 11014 11013 11012 11011 11011 11010 11010
10869 10868 10868 10867 10867 10868 10868 10869 10870 10871 10871 10872 10873 10874 10877 10879 10881 10883 10885 10887 10889 10891 10892 10894 10896 10898 10900 10903 10906 10908 10911 10913 10916 10918 10921 10924 10928 10931 10933 10935 10939 10942 10945 10948 10950 10953 10956 10959 10961 10964 10967 10971 10974 10976 10979 10981 10983 10985 10986 10987 10989 10991 10994 10996 10999 11001 11002 11004 11005 11007 11008 11009 11010 11011 11011 11011 11012 11013 11014 11013 11013 11013 11013 11012 11011 11011 11011 11010
10863 10862 10861 10861 10860 10861 10861 10862 10863 10864 10864 10865 10865 10866 10869 10871 10874 10876 10878 10880 10883 10885 10887 10888 10890 10892 10894 10897 10900 10903 10905 10908 10910 10913 10916 10919 10922 10925 10928 10930 10934 10937 10940 10944 10947 10949 10953 10956 10958 10960 10964 10968 10971 10973 10975 10978 10980 10982 10983 10984 10986 10989 10991 10994 10997 10999 11001 11002 11004 11005 11006 11008 11009 11010 11010 11010 11011 11011 11013 11013 11013 11013 11013 11012 11012 11011 11011 11010
10858 10856 10855 10854 10854 10853 10853 10854 10855 10856 10857 10857 10857 10859 10860 10863 10867 10869 10871 10873 10875 10878 10880 10882 10884 10886 10888 10890 10893 10897 10900 10902 10904 10907 10911 10914 10917 10919 10922 10925 10928 10932 10936 10939 10942 10945 10948 10952 10954 10957 10960 10964 10968 10970 10972 10975 10976 10978 10979 10981 10984 10986 10989 10992 10994 10997 10999 11000 11002 11003 11005 11006 11008 11009 11009 11010 11010 11010 11012 11013 11012 11013 11013 11012 11012 11012 11011 11011
10852 10851 10849 10848 10847 10846 10846 10846 10847 10848 10848 10848 10849 10850 10853 10855 10858 10861 10863 10865 10867 10870 10873 10875 10877 10879 10882 10884 10887 10890 10893 10896 10898 10901 10905 10909 10911 10913 10916 10920 10923 10927 10931 10934 10938 10941 10944 10948 10951 10953 10957 10961 10963 10965 10968 10970 10971 10972 10975 10978 10981 10984 10987 10989 10992 10995 10997 10999 11000 11001 11003 11005 11006 11007 11008 11009 11009 11009 11011 11012 11012 11012 11012 11012 11012 11012 11011 11011
10848 10845 10843 10842 10841 10840 10839 10839 10839 10840 10840 10839 10840 10841 10844 10848 10850 10852 10854 10856 10859 10862 10865 10868 10870 10872 10875 10877 10880 10883 10886 10889 10892 10895 10899 10903 10906 10908 10911 10914 10917 10921 10925 10929 10933 10937 10941 10944 10947 10949 10953 10956 10958 10961 10964 10965 10966 10968 10972 10976 10979 10982 10984 10987 10990 10993 10995 10997 10998 10999 11001 11003 11004 11006 11007 11008 11008 11008 11009 11011 11012 11012 11012 11012 11012 11011 11011 11011
10842 10840 10838 10836 10834 10833 10832 10832 10832 10832 10832 10831 10831 10832 10835 10838 10841 10843 10845 10847 10850 10854 10857 10859 10862 10865 10868 10870 10873 10876 10879 10882 10885 10889 10893 10896 10899 10902 10905 10909 10912 10915 10920 10924 10929 10933 10936 10939 10941 10944 10948 10950 10953 10957 10960 10960 10962 10965 10970 10973 10976 10979 10982 10985 10988 10990 10993 10994 10996 10997 10999 11001 11002 11004 11005 11006 11007 11007 11008 11009 11011 11011 11011 11011 11011 11011 11011 11011
10836 10834 10832 10830 10828 10826 10825 10824 10824 10824 10824 10822 10822 10823 10826 10828 10831 10833 10835 10838 10841 10844 10848 10851 10854 10857 10860 10863 10866 10869 10872 10875 10878 10882 10886 10889 10893 10896 10899 10903 10907 10910 10914 10919 10924 10927 10929 10933 10936 10939 10943 10946 10950 10954 10955 10956 10958 10963 10967 10970 10973 10977 10980 10982 10985 10988 10990 10992 10994 10996 10997 10998 11000 11002 11003 11005 11006 11006 11006 11008 11009 11010 11010 11011 11011 11011 11011 11011
10829 10827 10825 10822 10821 10819 10818 10817 10816 10816 10815 10814 10813 10815 10817 10818 10820 10822 10825 10828 10831 10835 10839 10842 10845 10848 10851 10855 10858 10861 10865 10867 10870 10874 10878 10883 10887 10890 10894 10897 10901 10905 10909 10914 10917 10919 10923 10926 10930 10934 10937 10942 10946 10948 10950 10952 10955 10959 10963 10966 10970 10974 10977 10979 10982 10985 10988 10990 10992 10993 10995 10996 10998 11000 11001 11002 11004 11005 11005 11006 11007 11009 11010 11010 11010 11010 11010 11011
10822 10819 10817 10814 10813 10811 10810 10809 10808 10807 10806 10805 10805 10806 10808 10809 10810 10811 10814 10817 10821 10824 10829 10833 10835 10838 10842 10846 10850 10854 10857 10860 10863 10866 10870 10875 10880 10884 10888 10891 10895 10899 10904 10908 10910 10913 10917 10921 10925 10928 10933 10937 10939 10942 10945 10948 10951 10955 10959 10963 10967 10971 10974 10977 10979 10982 10985 10987 10989 10991 10992 10994 10996 10998 10999 11001 11002 11003 11004 11004 11005 11007 11009 11009 11009 11010 11010 11010
10813 10810 10808 10806 10804 10802 10801 10800 10800 10799 10797 10796 10796 10797 10798 10799 10800 10800 10802 10806 10810 10814 10818 10822 10825 10828 10832 10837 10841 10845 10849 10852 10855 10857 10862 10867 10872 10877 10881 10885 10888 10893 10899 10902 10903 10907 10911 10915 10919 10923 10928 10931 10933 10937 10941 10943 10947 10952 10956 10960 10964 10967 10970 10973 10976 10979 10981 10983 10985 10988 10989 10991 10993 10995 10997 10998 11000 11001 11002 11002 11003 11005 11007 11008 11008 11009 11009 11009
10804 10801 10798 10796 10794 10792 10791 10791 10791 10790 10788 10787 10787 10788 10789 10789 10789 10789 10790 10794 10797 10802 10807 10810 10814 10818 10821 10826 10831 10836 10840 10843 10846 10849 10854 10860 10865 10870 10875 10878 10882 10887 10892 10895 10897 10900 10905 10909 10913 10918 10922 10924 10928 10932 10935 10939 10943 10948 10952 10956 10960 10964 10967 10969 10972 10975 10977 10979 10982 10985 10986 10987 10989 10991 10994 10996 10997 10999 11000 11001 11002 11003 11005 11007 11007 11008 11009 11009
10794 10790 10788 10786 10784 10781 10780 10780 10781 10780 10778 10777 10778 10779 10779 10779 10778 10779 10779 10782 10785 10790 10795 10799 10802 10807 10811 10816 10822 10827 10831 10834 10838 10842 10846 10852 10857 10862 10867 10871 10876 10881 10885 10888 10891 10894 10899 10903 10908 10912 10915 10918 10923 10926 10930 10933 10938 10942 10947 10951 10956 10960 10963 10965 10968 10970 10973 10975 10979 10981 10982 10984 10986 10988 10991 10993 10995 10997 10998 10999 11000 11002 11003 11005 11006 11007 11007 11008
10784 10780 10777 10776 10773 10770 10769 10769 10770 10769 10767 10767 10769 10769 10769 10768 10768 10768 10769 10771 10774 10778 10783 10787 10791 10795 10800 10806 10811 10816 10821 10825 10829 10833 10838 10843 10849 10853 10859 10864 10869 10874 10878 10881 10884 10889 10893 10897 10902 10906 10910 10913 10916 10920 10924 10928 10932 10938 10943 10947 10952 10956 10958 10961 10964 10966 10969 10972 10975 10977 10979 10981 10983 10986 10988 10990 10992 10994 10996 10998 10999 11000 11001 11003 11005 11006 11006 11007
10774 10770 10767 10765 10762 10760 10758 10759 10759 10758 10757 10757 10758 10759 10758 10757 10757 10757 10758 10760 10763 10766 10771 10776 10780 10784 10788 10795 10800 10805 10810 10816 10821 10825 10829 10835 10840 10845 10851 10856 10862 10866 10871 10874 10878 10882 10887 10891 10896 10899 10903 10906 10910 10914 10919 10923 10928 10934 10938 10942 10946 10950 10954 10957 10959 10962 10965 10968 10970 10973 10976 10978 10980 10982 10985 10987 10989 10991 10994 10996 10997 10998 10999 11001 11003 11004 11005 11005
10764 10760 10757 10755 10752 10750 10749 10748 10748 10747 10747 10747 10747 10747 10746 10746 10745 10746 10747 10749 10751 10754 10758 10762 10767 10772 10777 10783 10789 10794 10800 10806 10812 10816 10820 10825 10831 10837 10842 10847 10853 10858 10863 10867 10871 10875 10880 10885 10888 10891 10896 10901 10905 10910 10914 10919 10924 10928 10932 10936 10941 10945 10949 10952 10955 10958 10960 10963 10967 10970 10972 10975 10977 10979 10981 10983 10986 10989 10991 10993 10995 10996 10997 10998 11000 11002 11003 11004
10754 10750 10747 10745 10742 10741 10740 10739 10738 10737 10736 10737 10737 10735 10734 10734 10734 10734 10735 10737 10739 10742 10745 10749 10754 10760 10765 10771 10777 10783 10789 10796 10802 10806 10811 10816 10822 10828 10833 10838 10844 10850 10855 10859 10864 10869 10874 10878 10881 10886 10892 10897 10901 10905 10909 10914 10918 10922 10926 10930 10934 10939 10943 10947 10951 10953 10956 10959 10962 10965 10968 10970 10972 10974 10976 10979 10983 10985 10987 10990 10992 10994 10994 10995 10997 11000 11001 11003
10744 10741 10739 10736 10733 10733 10731 10730 10729 10727 10725 10725 10725 10724 10722 10721 10722 10722 10723 10724 10726 10729 10732 10735 10741 10748 10754 10759 10764 10771 10778 10784 10790 10796 10802 10807 10813 10818 10824 10829 10835 10841 10846 10851 10856 10862 10866 10869 10874 10881 10887 10891 10895 10899 10904 10908 10912 10916 10920 10924 10928 10933 10937 10942 10946 10948 10951 10955 10958 10960 10963 10965 10968 10970 10973 10976 10979 10981 10984 10986 10989 10991 10992 10993 10995 10997 10999 11001
10736 10733 10731 10728 10726 10725 10723 10722 10719 10717 10714 10712 10712 10711 10710 10709 10709 10710 10711 10712 10714 10717 10720 10723 10729 10736 10741 10746 10752 10759 10766 10773 10779 10786 10792 10798 10803 10808 10815 10821 10826 10833 10838 10843 10848 10853 10857 10861 10868 10874 10880 10884 10888 10893 10898 10902 10906 10910 10913 10918 10922 10927 10931 10937 10940 10942 10946 10950 10953 10956 10959 10961 10963 10966 10969 10972 10974 10977 10980 10982 10985 10988 10990 10992 10993 10995 10997 10999
10728 10726 10724 10722 10719 10717 10715 10712 10709 10706 10703 10700 10698 10698 10699 10699 10698 10698 10699 10700 10702 10705 10708 10712 10718 10723 10727 10732 10738 10746 10753 10761 10768 10775 10782 10789 10794 10799 10805 10812 10818 10824 10830 10835 10839 10844 10849 10854 10862 10868 10873 10878 10883 10888 10892 10896 10900 10903 10907 10911 10916 10921 10926 10931 10934 10937 10941 10946 10949 10952 10955 10957 10959 10962 10965 10967 10970 10972 10975 10978 10981 10984 10987 10990 10992 10993 10995 10997
10721 10719 10717 10715 10712 10709 10706 10703 10699 10695 10691 10688 10686 10685 10687 10687 10686 10686 10687 10688 10690 10693 10696 10701 10706 10710 10713 10718 10725 10733 10740 10748 10756 10764 10772 10779 10785 10791 10797 10804 10810 10816 10821 10826 10831 10836 10841 10847 10855 10861 10867 10872 10877 10882 10886 10890 10893 10897 10900 10904 10910 10916 10921 10926 10929 10932 10937 10942 10945 10947 10950 10952 10954 10957 10960 10962 10965 10968 10971 10975 10978 10981 10984 10988 10990 10991 10993 10995
10715 10713 10711 10708 10704 10700 10697 10693 10689 10683 10679 10677 10675 10674 10674 10673 10673 10674 10674 10676 10678 10681 10685 10690 10693 10696 10700 10706 10714 10722 10729 10737 10746 10754 10762 10769 10775 10782 10789 10795 10801 10807 10812 10817 10822 10827 10833 10839 10846 10853 10859 10866 10871 10876 10880 10884 10888 10890 10893 10897 10904 10911 10917 10921 10924 10928 10933 10938 10940 10942 10945 10946 10949 10952 10955 10957 10960 10963 10967 10971 10974 10977 10981 10985 10987 10989 10990 10992
10709 10707 10704 10700 10696 10692 10687 10682 10677 10672 10667 10665 10663 10662 10660 10660 10661 10661 10662 10663 10666 10669 10673 10678 10681 10684 10689 10696 10703 10711 10718 10727 10735 10743 10751 10758 10765 10772 10779 10785 10791 10798 10803 10809 10814 10819 10824 10830 10838 10846 10853 10859 10864 10868 10872 10877 10880 10882 10885 10891 10899 10905 10912 10917 10920 10924 10929 10933 10935 10937 10939 10941 10944 10948 10950 10953 10956 10960 10963 10967 10971 10975 10979 10982 10984 10986 10987 10989
10703 10700 10696 10692 10686 10682 10677 10671 10665 10660 10656 10653 10651 10649 10647 10647 10648 10648 10649 10650 10654 10658 10661 10665 10669 10672 10678 10684 10691 10699 10707 10716 10722 10731 10740 10747 10755 10762 10769 10776 10783 10790 10794 10800 10805 10810 10815 10821 10830 10839 10846 10851 10855 10859 10864 10869 10872 10874 10879 10887 10894 10900 10907 10913 10916 10919 10923 10927 10930 10932 10933 10936 10940 10944 10947 10950 10954 10957 10961 10965 10970 10973 10977 10979 10981 10983 10985 10986
10696 10692 10688 10683 10677 10671 10666 10660 10654 10649 10644 10641 10639 10637 10635 10635 10635 10636 10637 10638 10642 10646 10649 10653 10657 10661 10666 10671 10679 10688 10697 10704 10711 10720 10728 10736 10745 10752 10759 10767 10775 10781 10785 10791 10797 10801 10807 10814 10822 10831 10837 10842 10846 10851 10858 10863 10864 10868 10876 10883 10888 10894 10900 10906 10911 10914 10918 10922 10925 10927 10928 10931 10936 10940 10943 10947 10950 10953 10957 10961 10965 10969 10973 10976 10979 10981 10982 10983
10689 10685 10680 10675 10668 10661 10655 10649 10643 10637 10632 10629 10627 10624 10623 10623 10623 10624 10625 10627 10630 10634 10638 10642 10645 10649 10655 10661 10670 10679 10686 10693 10701 10709 10717 10726 10734 10741 10749 10757 10765 10771 10776 10782 10789 10794 10800 10806 10814 10822 10828 10833 10838 10845 10852 10855 10856 10864 10872 10876 10881 10887 10893 10900 10905 10908 10912 10916 10919 10921 10922 10926 10932 10935 10938 10942 10945 10949 10953 10956 10960 10964 10968 10972 10976 10977 10979 10980
10682 10677 10672 10666 10659 10652 10644 10638 10632 10626 10621 10618 10615 10613 10612 10611 10612 10612 10614 10617 10620 10624 10628 10631 10634 10639 10646 10653 10661 10668 10675 10682 10690 10697 10706 10715 10723 10731 10740 10747 10754 10760 10766 10773 10780 10786 10791 10797 10804 10812 10819 10825 10830 10838 10844 10845 10850 10859 10865 10868 10874 10881 10886 10893 10899 10904 10909 10910 10912 10916 10917 10920 10927 10930 10933 10937 10941 10945 10949 10952 10956 10960 10964 10968 10971 10973 10976 10978
10675 10670 10664 10657 10650 10642 10635 10627 10621 10615 10611 10607 10605 10603 10602 10601 10602 10603 10605 10608 10611 10615 10619 10622 10626 10631 10638 10645 10651 10657 10664 10671 10679 10686 10695 10703 10712 10721 10730 10737 10743 10749 10757 10765 10772 10778 10783 10789 10796 10802 10809 10815 10822 10830 10836 10837 10843 10852 10857 10861 10868 10874 10881 10888 10894 10900 10903 10903 10906 10910 10911 10915 10923 10926 10928 10932 10937 10941 10945 10948 10953 10957 10960 10963 10966 10968 10972 10974
10669 10663 10656 10649 10641 10633 10625 10618 10611 10605 10601 10597 10595 10594 10593 10593 10593 10594 10597 10600 10603 10606 10610 10614 10619 10624 10630 10636 10642 10648 10654 10662 10669 10676 10684 10692 10701 10710 10718 10726 10732 10738 10747 10756 10763 10770 10776 10781 10787 10793 10800 10806 10813 10821 10827 10830 10836 10844 10850 10855 10861 10868 10875 10882 10888 10894 10897 10896 10900 10905 10906 10910 10918 10922 10925 10928 10932 10937 10940 10944 10948 10952 10956 10958 10961 10963 10966 10968
10663 10656 10650 10642 10633 10625 10617 10609 10602 10597 10592 10589 10587 10586 10585 10585 10586 10587 10589 10592 10595 10599 10603 10608 10613 10618 10623 10629 10634 10640 10645 10652 10659 10666 10674 10682 10691 10699 10708 10715 10721 10728 10737 10746 10754 10762 10768 10773 10778 10784 10791 10798 10805 10812 10818 10822 10828 10835 10842 10847 10853 10860 10867 10874 10881 10886 10889 10889 10893 10898 10900 10905 10912 10917 10921 10923 10927 10932 10936 10940 10944 10947 10951 10954 10957 10959 10961 10963
10656 10649 10642 10635 10626 10618 10609 10601 10594 10589 10585 10582 10580 10578 10578 10578 10579 10580 10583 10586 10589 10593 10598 10602 10606 10611 10617 10622 10627 10632 10637 10643 10650 10657 10665 10673 10681 10690 10697 10704 10711 10719 10728 10736 10745 10753 10760 10765 10771 10777 10783 10789 10795 10802 10809 10814 10819 10826 10833 10839 10845 10852 10859 10866 10872 10877 10881 10882 10886 10892 10896 10900 10905 10911 10915 10919 10923 10927 10931 10935 10939 10943 10947 10950 10953 10955 10957 10959
10650 10643 10635 10627 10620 10611 10602 10594 10587 10582 10578 10575 10574 10572 10572 10572 10573 10575 10578 10581 10584 10588 10592 10596 10601 10606 10611 10617 10621 10626 10631 10637 10643 10649 10656 10663 10671 10679 10687 10694 10701 10709 10717 10726 10735 10744 10750 10756 10763 10768 10773 10779 10785 10793 10799 10805 10810 10816 10824 10831 10837 10844 10851 10857 10863 10869 10874 10877 10881 10887 10892 10895 10899 10904 10910 10915 10918 10922 10926 10931 10934 10938 10942 10946 10949 10951 10952 10954
10645 10637 10629 10621 10613 10605 10596 10588 10582 10577 10573 10570 10568 10567 10567 10567 10568 10570 10573 10576 10580 10583 10587 10591 10596 10601 10606 10611 10616 10620 10625 10631 10637 10643 10649 10655 10662 10669 10676 10683 10691 10698 10706 10715 10724 10732 10739 10746 10752 10758 10764 10770 10776 10783 10790 10796 10801 10807 10815 10822 10828 10835 10842 10848 10855 10861 10867 10871 10877 10882 10888 10891 10894 10898 10905 10910 10914 10917 10921 10926 10930 10933 10937 10941 10944 10946 10948 10950
10641 10633 10624 10615 10607 10600 10592 10584 10577 10572 10569 10566 10564 10563 10563 10563 10565 10566 10569 10572 10576 10579 10583 10587 10592 10596 10600 10605 10610 10614 10619 10624 10630 10635 10641 10647 10653 10660 10667 10674 10680 10687 10695 10704 10712 10720 10728 10735 10742 10749 10755 10760 10767 10774 10781 10787 10793 10799 10805 10813 10820 10826 10832 10839 10847 10854 10860 10866 10871 10876 10882 10887 10890 10894 10898 10904 10909 10913 10917 10921 10924 10928 10931 10935 10938 10941 10943 10946
10636 10628 10619 10610 10602 10594 10587 10580 10574 10569 10565 10562 10560 10560 10559 10560 10561 10563 10566 10569 10572 10576 10580 10584 10587 10591 10595 10599 10604 10608 10613 10618 10623 10628 10634 10640 10645 10652 10658 10664 10670 10677 10685 10693 10700 10709 10716 10724 10732 10739 10745 10751 10758 10764 10771 10778 10785 10790 10797 10804 10810 10817 10824 10831 10838 10846 10853 10859 10865 10869 10874 10881 10887 10889 10892 10897 10903 10908 10912 10915 10919 10922 10926 10929 10933 10936 10938 10941
10632 10625 10615 10606 10598 10590 10583 10577 10571 10566 10563 10560 10558 10556 10556 10557 10559 10561 10564 10566 10569 10573 10577 10581 10584 10587 10591 10595 10599 10603 10608 10613 10618 10622 10627 10632 10638 10643 10649 10654 10660 10666 10674 10682 10690 10698 10706 10713 10721 10729 10735 10742 10748 10754 10762 10770 10777 10782 10789 10795 10801 10808 10815 10822 10829 10837 10845 10851 10857 10861 10867 10876 10883 10885 10886 10890 10896 10901 10906 10910 10913 10916 10920 10924 10927 10930 10933 10936
10628 10621 10613 10604 10595 10587 10580 10575 10569 10564 10560 10558 10555 10554 10554 10554 10556 10558 10561 10564 10567 10570 10574 10577 10581 10584 10588 10592 10596 10600 10605 10609 10613 10617 10622 10626 10630 10635 10640 10645 10650 10656 10663 10671 10679 10688 10695 10703 10712 10720 10727 10733 10740 10747 10755 10762 10769 10775 10781 10787 10792 10800 10807 10813 10820 10828 10836 10843 10848 10854 10861 10869 10875 10878 10880 10883 10888 10894 10899 10904 10907 10910 10914 10918 10921 10924 10928 10931
10625 10618 10610 10601 10593 10585 10578 10572 10567 10563 10559 10556 10554 10552 10552 10552 10553 10555 10558 10560 10564 10567 10571 10574 10577 10581 10584 10588 10592 10596 10600 10605 10609 10613 10616 10620 10624 10628 10633 10637 10642 10648 10655 10663 10671 10680 10688 10695 10704 10712 10719 10726 10733 10741 10747 10754 10761 10768 10773 10779 10784 10790 10797 10804 10811 10819 10827 10833 10839 10846 10852 10859 10866 10872 10876 10878 10881 10886 10892 10897 10901 10904 10907 10911 10915 10918 10922 10925
10623 10615 10607 10599 10591 10583 10576 10570 10566 10562 10558 10554 10552 10551 10550 10550 10551 10553 10555 10557 10560 10564 10567 10571 10574 10577 10580 10583 10587 10591 10595 10599 10603 10607 10611 10615 10618 10622 10626 10632 10637 10642 10649 10657 10665 10673 10682 10689 10697 10705 10713 10720 10727 10734 10740 10747 10754 10760 10765 10771 10776 10781 10788 10795 10802 10809 10816 10823 10830 10837 10844 10851 10859 10866 10871 10873 10875 10879 10884 10890 10894 10898 10900 10904 10908 10912 10916 10919
10620 10612 10605 10597 10589 10581 10574 10568 10564 10560 10557 10554 10551 10549 10549 10548 10549 10551 10553 10555 10557 10560 10563 10567 10570 10573 10577 10580 10583 10586 10590 10594 10597 10601 10604 10608 10612 10616 10620 10626 10631 10636 10642 10649 10657 10666 10675 10682 10689 10698 10706 10713 10720 10727 10733 10739 10746 10751 10757 10763 10769 10774 10779 10786 10792 10799 10806 10813 10820 10828 10836 10844 10851 10857 10863 10867 10869 10871 10876 10881 10887 10891 10894 10898 10901 10905 10909 10913
10618 10611 10604 10596 10588 10581 10573 10567 10562 10559 10556 10553 10551 10549 10547 10547 10547 10549 10550 10552 10555 10557 10560 10563 10566 10570 10573 10576 10579 10583 10586 10589 10592 10595 10599 10603 10606 10610 10615 10620 10625 10630 10635 10641 10649 10658 10666 10673 10681 10689 10697 10705 10711 10718 10724 10730 10736 10742 10748 10754 10760 10765 10771 10776 10782 10789 10796 10803 10811 10820 10828 10835 10842 10848 10854 10860 10863 10864 10867 10872 10878 10884 10888 10891 10894 10898 10902 10907
10616 10610 10603 10596 10588 10581 10573 10567 10561 10558 10555 10553 10551 10549 10547 10546 10546 10547 10548 10550 10552 10555 10557 10560 10563 10566 10569 10572 10576 10579 10582 10585 10588 10591 10595 10598 10602 10606 10610 10615 10620 10624 10629 10635 10642 10649 10657 10664 10672 10679 10687 10694 10701 10707 10714 10719 10725 10731 10737 10743 10750 10756 10761 10767 10772 10778 10786 10794 10802 10812 10820 10825 10832 10839 10845 10851 10856 10857 10859 10863 10869 10875 10880 10884 10887 10891 10895 10900
10613 10608 10601 10594 10588 10581 10574 10567 10561 10557 10554 10552 10550 10548 10547 10545 10545 10545 10546 10548 10550 10552 10554 10556 10559 10561 10564 10567 10571 10574 10577 10580 10583 10586 10590 10593 10596 10600 10604 10608 10613 10617 10622 10628 10633 10640 10648 10655 10663 10670 10677 10684 10690 10696 10702 10708 10714 10719 10726 10732 10738 10745 10751 10756 10761 10767 10775 10783 10792 10803 10810 10815 10822 10829 10835 10841 10847 10851 10852 10855 10860 10866 10871 10877 10881 10884 10889 10894
10611 10605 10599 10592 10586 10580 10573 10568 10562 10558 10554 10551 10549 10547 10546 10545 10544 10544 10544 10546 10548 10549 10551 10553 10555 10558 10560 10563 10566 10569 10572 10575 10577 10580 10583 10586 10589 10592 10596 10600 10604 10609 10614 10619 10624 10631 10638 10645 10653 10660 10666 10673 10679 10685 10691 10697 10702 10708 10714 10720 10726 10733 10740 10745 10751 10757 10764 10771 10781 10792 10799 10805 10812 10819 10826 10832 10838 10843 10846 10847 10851 10856 10862 10869 10874 10878 10882 10887
10609 10603 10597 10591 10585 10578 10572 10567 10562 10558 10554 10551 10548 10546 10545 10544 10543 10543 10543 10544 10545 10546 10548 10549 10551 10554 10556 10559 10561 10564 10566 10569 10572 10574 10577 10580 10583 10586 10590 10594 10598 10602 10607 10611 10616 10622 10628 10635 10642 10649 10655 10661 10668 10674 10679 10685 10691 10697 10702 10708 10714 10721 10728 10735 10740 10746 10753 10761 10769 10779 10787 10795 10803 10810 10816 10822 10828 10833 10838 10840 10843 10847 10853 10860 10866 10870 10874 10879
10607 10601 10595 10589 10583 10578 10572 10566 10562 10558 10554 10551 10548 10545 10543 10542 10542 10541 10541 10541 10542 10543 10545 10546 10548 10549 10552 10554 10557 10559 10562 10564 10567 10570 10573 10576 10579 10582 10585 10588 10592 10596 10599 10604 10608 10613 10619 10626 10632 10638 10644 10650 10656 10662 10667 10673 10679 10685 10691 10697 10703 10709 10716 10723 10729 10736 10743 10750 10758 10766 10776 10785 10794 10800 10805 10811 10817 10823 10829 10833 10835 10838 10844 10851 10857 10862 10867 10871
10605 10599 10593 10587 10581 10576 10570 10565 10561 10557 10554 10551 10547 10545 10542 10541 10540 10539 10539 10539 10539 10540 10542 10543 10544 10546 10547 10550 10552 10554 10557 10560 10562 10565 10567 10570 10573 10576 10579 10581 10585 10589 10592 10596 10600 10604 10610 10616 10621 10627 10633 10639 10645 10651 10656 10661 10667 10673 10680 10686 10692 10698 10704 10711 10718 10725 10732 10740 10747 10754 10763 10774 10783 10789 10794 10800 10807 10813 10820 10825 10828 10831 10835 10841 10847 10853 10858 10862
10602 10597 10591 10585 10579 10574 10568 10563 10559 10556 10552 10549 10546 10544 10542 10540 10538 10537 10537 10537 10537 10537 10538 10539 10541 10542 10543 10545 10547 10549 10552 10554 10557 10559 10562 10565 10567 10570 10573 10575 10578 10582 10586 10589 10593 10596 10601 10606 10611 10616 10621 10627 10633 10640 10645 10651 10656 10662 10669 10676 10681 10687 10692 10698 10706 10713 10721 10729 10736 10743 10751 10762 10771 10778 10784 10790 10797 10805 10811 10817 10821 10824 10827 10832 10837 10843 10848 10853